www.pogodaiklimat.ru

Погода и климат >> Архив погоды >> Финляндия >> Мекриярви


ПОГОДА в Мекриярви

  • Прогноз погоды в Мекриярви
  • Монитор погоды в Мекриярви

АРХИВ ПОГОДЫ в Мекриярви

Время (UTC), дата Ветер
(напр.,м/с)
 
Видим.   Явления Облачность Т
(С)
Тd
(С)
f
(%)
Тe
(С)
Тes
(С)
Комфортность P
(гПа)
Po
(гПа)
Тmin
(С)
Tmax
(С)
R
(мм)
R24
(мм)
S
(см)
18 11.09 Ю 3-6
{10}
35 км слаб. ливневой дождь 9/9 2000 м
[]
+14.9 +12.7 87 +14 +14 1015.7 997.0 +14.9 +19.2 0.1
21 11.09 Ю 8-11
{12}
29 км слаб. дождь 9/6 600 м
[]
+14.8 +11.6 81 +13 +13 1013.8 995.1
00 12.09 Ю 5-10
{10}
45 км в посл. час морось {ливн. осадки, дождь} 9/9 300 м
[]
+14.5 +12.3 87 +13 +13 1012.5 993.8
03 12.09 Ю 5-8
{8}
40 км {ливн. осадки, дождь} 9/6 300 м
[]
+14.7 +13.1 90 +13 +13 1011.9 993.3
06 12.09 ЮЗ 4-8
{9}
40 км {ливн. осадки, дождь} 6/4 200 м
[]
+13.9 +12.3 90 +12 +13 1012.8 994.1 +13.9 +15.3
09 12.09 ЮЗ 5-8
{10}
45 км 9/9 300 м
[]
+15.0 +11.8 81 +14 +14 1012.4 993.8
12 12.09 Ю 5-8
{12}
35 км слаб. ливневой дождь 9/0 2000 м
[]
+15.5 +12.2 81 +14 +15 1011.0 992.5
15 12.09 Ю 7-10
{17}
8000 м дождь {ливн. осадки} 9/9 300 м
[]
+12.6 +11.7 94 +10 +10 1009.7 991.0 0.2
18 12.09 Ю 6 40 км {ливн. осадки, дождь} 9/9 200 м
[]
+12.9 +11.9 94 +10 +10 1007.9 989.3 +12.3 +16.6 0.6
21 12.09 ЮЗ 6-10
{10}
45 км в посл. час дождь {ливн. осадки} 9/9 100 м
[]
+13.1 +12.5 96 +11 +11 1006.8 988.2 3
00 13.09 ЮЗ 5-8
{8}
50 км {ливн. осадки, дождь} 9/4 300 м
[]
+12.5 +11.7 95 +10 +10 1007.2 988.5
03 13.09 ЮЗ 2-5
{5}
50 км 9/1 100 м
[]
+11.1 +10.7 97 +10 +10 1006.9 988.2
06 13.09 Ю 5-8
{8}
20 км слаб. ливневой дождь 9/9 100 м
[]
+11.9 +11.2 95 +9 +9 1005.6 986.9 +10.9 +13.2 5
09 13.09 ЮЗ 3-6
{7}
2400 м сильн. ливневой дождь {метель} 9/6 300 м
[]
+12.3 +11.7 96 +11 +12 1004.0 985.3 3
12 13.09 З 3-5
{7}
40 км {ливн. осадки} 9/1 600 м
[]
+13.1 +9.3 78 +12 +14 1003.9 985.4
15 13.09 З 4-6
{6}
50 км 9/9 600 м
[]
+12.8 +8.8 77 +11 +11 1003.8 985.2
18 13.09 З 3-5
{5}
50 км ясно +9.6 +8.0 90 +7 +7 1004.2 985.4 +9.6 +14.0 7
21 13.09 З 2-3
{4}
50 км 1/0 1500 м
[]
+7.9 +6.8 93 +6 +6 1004.0 985.1
00 14.09 З 2-4
{5}
50 км ясно +6.8 +5.9 94 +4 +4 1003.8 984.8
03 14.09 З 3-6
{6}
6000 м слаб. ливневой дождь 9/9 200 м
[]
+7.7 +6.9 95 +5 +5 1003.9 985.0
06 14.09 З 4-9
{9}
50 км в посл. час морось {ливн. осадки, дождь} 9/9 300 м
[]
+8.3 +6.6 89 +5 +5 1004.2 985.3 +6.5 +9.6 2
09 14.09 СЗ 4-10
{12}
50 км {ливн. осадки, дождь} 6/6 600 м
[]
+10.2 +5.4 72 +8 +9 1005.2 986.4
12 14.09 З 3-8
{10}
40 км в посл. час дождь {ливн. осадки} 6/6 600 м
[]
+11.4 +4.9 64 +10 +11 1006.4 987.7
15 14.09 СЗ 3-8
{11}
50 км в посл. час дождь {ливн. осадки} 9/1 1500 м
[]
+9.1 +3.8 69 +7 +7 1008.0 989.1
18 14.09 З 2-4
{5}
50 км {ливн. осадки, дождь} ясно +6.4 +3.8 83 +4 +4 1009.1 990.0 +6.3 +11.8
21 14.09 З 2-4
{5}
50 км ясно +5.1 +2.9 86 +2 +2 1009.6 990.4
00 15.09 З 1-3
{3}
50 км ясно +2.8 +2.6 99 +1 +1 1009.3 989.9
03 15.09 Ю 1-2
{3}
50 км ясно +3.0 +2.5 97 +1 +1 1008.0 988.7
06 15.09 Ю 3-4
{4}
600 м туман {дымка} ?/? +4.5 +4.4 99 +1 +1 1005.1 985.9 +2.4 +6.4
09 15.09 Ю 3-6
{7}
40 км {метель} 9/1 300 м
[]
+8.7 +5.7 81 +6 +8 1001.0 982.2
12 15.09 ЮВ 5-8
{10}
20 км слаб. ливневой дождь 9/9 600 м
[]
+8.9 +5.8 81 +5 +6 996.1 977.4
15 15.09 ЮВ 5-10
{12}
30 км слаб. дождь 9/9 300 м
[]
+7.1 +5.9 92 +3 +3 990.8 972.1 0.3
18 15.09 В 4-8
{10}
50 км слаб. морось {дождь} 10/10 200 м
[]
+6.6 +5.8 95 +3 +3 986.6 967.9 +4.4 +9.8 3
21 15.09 В 4-8
{10}
10 км слаб. ливневой дождь 10/10 200 м
[]
+6.2 +5.7 97 +2 +2 983.9 965.3 0.1
00 16.09 СВ 3-7
{8}
11 км слаб. дождь 10/10 100 м
[]
+6.2 +6.0 99 +3 +3 983.1 964.5 0.7
03 16.09 СВ 3-6
{7}
25 км слаб. дождь 10/10 100 м
[]
+6.3 +6.1 99 +3 +3 983.2 964.6 0.8
06 16.09 СВ 4-7
{9}
30 км слаб. дождь {морось} 10/10 300 м
[]
+6.3 +5.8 97 +2 +2 984.5 965.9 +6.1 +6.6 6
09 16.09 С 4-8
{11}
50 км {дождь, морось} 10/10 300 м
[]
+7.5 +4.7 82 +4 +4 986.6 968.0
12 16.09 С 5-9
{10}
40 км {дождь, морось} 4/0
[]
+10.1 +1.7 56 +7 +9 988.2 969.7
15 16.09 С 3-5
{9}
40 км 10/10 600 м
[]
+7.9 +4.6 80 +5 +5 990.1 971.5
18 16.09 СЗ 3 16 км слаб. дождь 10/10 200 м
[]
+6.6 +6.2 97 +3 +3 990.7 971.9 +6.3 +10.5 0.3
21 16.09 С 2-4
{6}
40 км в посл. час морось {дождь} 9/1 300 м
[]
+6.9 +6.6 98 +4 +4 991.2 972.5 0.1
00 17.09 С 3-5
{5}
50 км {ливн. осадки, дождь} 10/10 300 м
[]
+7.0 +6.6 97 +4 +4 991.7 973.0
03 17.09 С 3 50 км 10/6 300 м
[]
+6.7 +6.0 95 +3 +3 992.4 973.6
06 17.09 С 3-7
{7}
50 км в посл. час морось {ливн. осадки} 9/4 300 м
[]
+7.1 +5.6 90 +4 +4 993.4 974.7 +6.5 +7.1 0.6
09 17.09 С 2-5
{6}
30 км слаб. дождь {метель} 9/9 600 м
[]
+7.9 +4.4 79 +6 +6 994.8 976.1
12 17.09 -6
{6}
50 км в посл. час дождь {ливн. осадки} 9/9 600 м
[]
+8.6 +5.3 80 995.8 977.1 0.1
15 17.09 С 2-4
{5}
50 км 9/1 600 м
[]
+7.6 +4.2 79 +6 +6 996.8 978.0
18 17.09 С 2-3
{4}
50 км {метель} 1/1 600 м
[]
+3.9 +3.2 95 +1 +1 998.3 979.3 +3.9 +9.3 0.6
21 17.09 С 2-3
{4}
50 км ясно +2.5 +2.0 96 -1 -1 999.1 980.0
00 18.09 С 3-4
{5}
50 км 10/10 300 м
[]
+3.0 +2.6 97 -1 -1 1000.1 981.0
03 18.09 -6
{6}
50 км 10/10 300 м
[]
+4.2 +3.4 95 1001.2 982.1
06 18.09 С 3-6
{6}
45 км 1/1 300 м
[]
+4.7 +2.2 84 +1 +2 1002.9 983.8 +1.8 +4.7
09 18.09 С 4-8
{9}
50 км 9/9 1000 м
[]
+6.3 -1.4 58 +3 +3 1004.4 985.3
12 18.09 С 3-6
{10}
40 км 9/0 1500 м
[]
+7.6 -1.8 51 +5 +7 1005.5 986.5

 

Местоположение метеостанции Мекриярви (Финляндия): широта 62.77 долгота 30.98 высота над уровнем моря 155 м.

В архиве по умолчанию представлена погода в Мекриярви за последнюю неделю. Архивные данные за месяц целиком и за предыдущие месяцы, начиная с января 2011 года, Вы можете получить, выбрав интересующий диапазон дат из раскрывающегося списка и нажав кнопку "Ввод!".


*Определитесь, кто Вы:
робот инопланетянин человек

Внимание! Время в таблицах - всемирное. Для получения местного времени необходимо прибавить поправку, которая равна 1 ч.

Смотрите также архив погоды в соседних городах и на ближайших метеорологических станциях:

Погода в Иломанци Поцонваара (Финляндия) (41 км)
Погода в Йоэнсуу (Финляндия) (67 км)
Погода в Тохмаярви (Финляндия) (67 км)
Погода в Вяртсиле (Карелия, Россия) (67 км)
Погода в Йоэнсуу аэропорту (Финляндия) (71 км)
Погода в Липери Туискаванлуото (Финляндия) (71 км)
Погода в Лиексе (Финляндия) (77 км)
Погода в Юуке (Финляндия) (102 км)
Погода в Суоярви (Карелия, Россия) (104 км)
Погода в Сортавале (Карелия, Россия) (118 км)

Пояснения к столбцам:

Ветер - указаны скорость ветра в м/с - средняя за 10 мин, порывы в срок и между сроками (в фигурных скобках) и направление, откуда дует ветер: С - северный, СВ - северо-восточный, В - восточный, ЮВ - юго-восточный, Ю - южный, ЮЗ - юго-западный, З - западный, СЗ - северо-западный.
Видимость - горизонтальная дальность видимости в метрах или километрах. При видимости от 1 до 10 км при отсутствии осадков обычно наблюдается дымка, при ухудшении видимости до 1 км и менее - туман. В сухую погоду видимость может ухудшаться дымом, пылью или мглою.
Явления - указаны атмосферные явления, наблюдавшиеся в срок или в последний час перед сроком; фигурными скобками обозначены явления, наблюдавшиеся между сроками (за 1-3 часа до срока); квадратными скобками обозначены град или гололедные отложения с указанием их диаметра в мм.
Облачность - указаны через наклонную черту общая и нижняя облачность в баллах и высота нижней границы облаков в метрах; квадратными скобками обозначены формы облаков: Ci - перистые, Cs - перисто-слоистые, Cc - перисто-кучевые, Ac - высококучевые, As - высокослоистые, Sc - слоисто-кучевые, Ns - слоисто-дождевые, Cu - кучевые, Cb - кучево-дождевые. Подробнее классификацию облаков см. в Атласе облаков (PDF).
T - Температура воздуха - температура, измеренная на высоте 2 м над землей.
Td - Температура точки росы - температура, при понижении до которой содержащийся в воздухе водяной пар достигнет насыщения.
f - Относительная влажность воздуха - влажноcть воздуха, измеренная на высоте 2 м над землей.
Te - Эффективная температура - температура, которую ощущает одетый по сезону человек в тени. Характеристика душности погоды. При расчете учитывается влияние влажности воздуха и скорости ветра на теплоощущения человека.
Tes - Эффективная температура на солнце - температура, которую ощущает человек, с поправкой на солнечный нагрев. Характеристика знойности погоды. Зависит от высоты солнца над горизонтом, облачности и скорости ветра. Ночью, в пасмурную погоду, а также при ветре 12 м/с и более поправка равна нулю.
P - Атмосферное давление - приведенное к уровню моря атмосферное давление.
Po - Атмосферное давление - измеренное на уровне метеостанции атмосферное давление.
Tmin - Минимальная температура - минимум температуры воздуха на высоте 2 м над землей.
Tmax - Максимальная температура - максимум температуры воздуха на высоте 2 м над землей.
R - Количество осадков - Количество выпавших осадков за период времени, мм. При наведении курсора мыши на число - период времени, за который выпало указанное количество осадков.
R24 - Количество осадков - Количество выпавших осадков за 24 часа, мм.
S - Снежный покров - Высота снежного покрова, см. При наведении курсора мыши на число - состояние снежного покрова и степень покрытия местности в баллах.